Other Surface Observations
Issued by NWS

Home | Current Version | Previous Version | Text Only | Print | Product List | Glossary On
Versions: 1 2 3 4 5 6 7 8 9 10 11 12 13 14 15 16 17 18 19 20 21 22 23 24 25 26 27 28 29 30 31 32 33 34 35 36 37 38 39 40 41 42 43 44 45 46 47 48 49 50
000
SXUS52 KTAE 270219
OSOTAE
OSOTAE
North Florida/South Alabama/Southwest Georgia Weather Roundup
National Weather Service Tallahassee Florida
1000 PM EDT THU MAR 26 2015

Note: "fair" indicates few or no clouds below 12,000 feet with no
significant weather and/or obstructions to visibility.

!FLZ017-115-028-034-025-270300
...North Florida...

CITY           SKY/WX    TMP DP  RH WIND       PRES   REMARKS
TALLAHASSEE    CLOUDY    64  63  96 SW3       29.88R
APALACHICOLA   CLOUDY    70  65  84 SW10G22   29.86R
PERRY          CLOUDY    62  61  97 NW3       29.87R
CROSS CITY       N/A     64  63  96 S9        29.86S
JACKSONVILLE   CLOUDY    67  66  97 SE8       29.85S
$$

!FLZ112-006-005-002-011-270300
...Florida Panhandle...

CITY           SKY/WX    TMP DP  RH WIND       PRES   REMARKS
MARIANNA       CLOUDY    65  64  97 SW10      29.87S
BONIFAY        MOCLDY    66  63  90 SW6       29.89R
PANAMA CITY NW LGT RAIN  67  64  90 S6        29.87S
TYNDALL AFB    DRIZZLE   68  65  92 SW9       29.89R
TYND DRONE APT CLOUDY    68  67  96 SW8       29.88R
DE FUNIAK SPR  NOT AVBL
EGLIN AFB      CLOUDY    68  64  87 S3        29.86F
DESTIN         CLOUDY    69  64  84 CALM      29.87F
HURLBURT       MOCLDY    68  60  75 S3        29.85F
CRESTVIEW      CLOUDY    65  63  93 S3        29.88F
PENSACOLA      CLOUDY    67  63  87 SW3       29.86R
$$

!ALZ063-066-270300
...South Alabama...

CITY           SKY/WX    TMP DP  RH WIND       PRES   REMARKS
DOTHAN         CLOUDY    65  62  90 SW9       29.90R
OZARK CAIRNS   CLOUDY    66  60  81 SW9       29.86S
FT RUCKER HELI CLOUDY    66  62  87 SW9       29.85R
RUCKER HELI 3  MOCLDY    65  62  89 SW8       29.87
RUCKER HELI 2  FAIR      65  62  90 SW7       29.82S
FLORALA APT    CLOUDY    65  62  90 SW6       29.88S
ANDALUSIA      LGT RAIN  70  63  78 SW8       29.86S
TROY           CLOUDY    68  63  84 SW9G18    29.84S
EUFALA         CLOUDY    67  62  84 SW5       29.85R
MOBILE         CLOUDY    64  63  96 SW7       29.86R
$$

!GAZ120>161-270300
...Southwest and South Central Georgia...

CITY           SKY/WX    TMP DP  RH WIND       PRES   REMARKS
THOMASVILLE    FAIR      63 N/A N/A CALM      29.86R
BAINBRIDGE     CLOUDY    66  63  88 SW7       29.87R
MOODY AFB      CLOUDY    64  62  94 W5        29.85R
VALDOSTA       CLOUDY    63  62  97 CALM      29.86R
MOULTRIE       CLOUDY    63 N/A N/A CALM      29.86R HAZE
BLAKELY        CLOUDY    66  66 100 SW9       29.87R
ALBANY         CLOUDY    64  62  93 SW6       29.87R
TIFTON         FAIR      63  63 100 S6        29.85R
FITZGERALD     FAIR      64  62  91 CALM      29.87R
CORDELE        FAIR      65  62  89 SW3       29.85R
AMERICUS       FAIR      63  63 100 SW6       29.87R
HOMERVILLE     CLOUDY    68  66  94 CALM      29.86R
$$

!GMZ750-755-770-775-270300
...Coastal and Buoy Obs...

STATION/POSITION TIME  TEMP    WIND        PRES    VSBY  WAVE
                       AIR SEA DIR/SP/G                  HT/PER
                 (UTC) (F)     (DEG/KT/KT) (MB)    (MI)  (FT/S)
KEATON BEACH     0200   69     210/ 20/ 23 1011.1R
CEDAR KEY        0200   69     220/  9/ 14 1012.9F
C TOWER          0200   67     200/ 23/ 25 1010.3F
APALACHICOLA BUO 0150   68 71  280/  8/ 14 1013.1R         2/ 5
PANAMA CITY BUOY 0150   70 75  250/ 14/ 16 1012.9F         3/ 5
MOBILE BUOY      0150   70 73  170/ 21/ 25 1009.4R         3/ 6
ORANGE BCH AL BU 0150   69 68  210/ 10/ 12 1010.5R         3/ 6
$$



USA.gov is the U.S. government's official web portal to all federal, state and local government web resources and services.